Portada
METAR-TAF:

METAR-TAF

Aeroports :

Plymouth Municipal Airport

Plymouth, Massachusetts, Estats Units d'Amèrica

latitud: 41-54-31N, longitud: 070-43-41W, altitud: 45 m

Observació

L'informe es va fer fa 57 minuts, a les 23:52 UTC
Vent 6 kt del Est
Temperatura 7°C
Humitat 70%
Pressió 1008 hPa
Visibilitat: 16.1 km
Cel cobert a una alçada de 6000 ft
pluja

METAR: KPYM 152352Z AUTO 09006KT 10SM -RA OVC060 07/02 A2976 RMK AO2 RAB04E12B45 SLP078 P0000 60000 T00670017 10106 20067 55005

Hora: 20:49 (00:49 UTC)


TAF: manca

Observacions i pronòstics meteorològics de més de 4000 aeroports (METAR i TAF).

Les estacions disponibles són els punts grocs i vermells al mapa.

Posi el ratolí al punt desitjat per veure el nom de l'estació.

Feu clic per veure les observacions i els pronòstics meteorològics.

Per canviar el mapa: feu clic els botons verds amb una creu de color negre per apropar; al botó verd amb un guió per allunyar la imatge; o en les fletxes verdes per a mapes adjacents.


METAR-TAF: